Lawrence, KS

1:58 AM CST on December 13, 2019 (GMT -0600)
Lawrence Municipal

Weather History for KLWC - November, 2019

Change the Weather History Date:

Tuesday, November 19, 2019

  Actual Average Record
Temperature  
Mean Temperature 49 °F 42 °F  
Max Temperature 65 °F 54 °F 77 °F (2007)
Min Temperature 32 °F 30 °F 12 °F (2014)
Degree Days  
Heating Degree Days 16 23  
Month to date heating degree days 483 359  
Since 1 July heating degree days 921 723  
Cooling Degree Days 0 0  
Month to date cooling degree days 0 0  
Year to date cooling degree days 1565 1370  
Moisture  
Dew Point 33 °F    
Average Humidity 59    
Maximum Humidity 89    
Minimum Humidity 28    
Precipitation  
Precipitation 0.00 in 0.06 in 0.03 in (2005)
Month to date precipitation 0.03 1.46  
Year to date precipitation 45.09 36.36  
Sea Level Pressure  
Sea Level Pressure 29.91 in    
Wind  
Wind Speed 6 mph (North)    
Max Wind Speed 10 mph    
Max Gust Speed 13 mph    
Visibility 9 miles    
Events      
T = Trace of Precipitation, MM = Missing Value Source: NWS Daily Summary

Daily Weather History Graph

Daily Weather History Graph

Search for Another Location

Airport or City:

Astronomy

Nov. 19, 2019 Rise Set
Actual Time 7:07 AM CST 5:04 PM CST
Civil Twilight 6:39 AM CST 5:32 PM CST
Nautical Twilight 6:06 AM CST 6:05 PM CST
Astronomical Twilight 5:34 AM CST 6:37 PM CST
Moon No Moon Rise 1:19 PM CST (11/19)
Length of Visible Light 10h 53m
Length of Day
9h 56m
Waning Gibbous, 51% of the Moon is Illuminated
Nov 19
Waning Gibbous
Nov 19
Last Quarter
Nov 26
New
Dec 4
First Quarter
Dec 11
Full

Hourly Weather History & Observations

Time (CST) Temp. Windchill Dew Point Humidity Pressure Visibility Wind Dir Wind Speed Gust Speed Precip Events Conditions
12:52 AM 39.9 °F 33.9 °F 33.1 °F 77% 29.83 in 10.0 mi WNW 9.2 mph - N/A   Clear
1:52 AM 37.9 °F 32.1 °F 32.0 °F 79% 29.83 in 10.0 mi WNW 8.1 mph - N/A   Clear
2:52 AM 37.9 °F - 32.0 °F 79% 29.85 in 10.0 mi Calm Calm - N/A   Clear
3:52 AM 39.9 °F 35.8 °F 34.0 °F 79% 29.85 in 10.0 mi NW 5.8 mph - N/A   Clear
4:52 AM 36.0 °F 31.1 °F 32.0 °F 86% 29.88 in 10.0 mi NW 5.8 mph - N/A   Clear
5:52 AM 35.1 °F 30.1 °F 32.0 °F 89% 29.89 in 10.0 mi NW 5.8 mph - N/A   Clear
7:52 AM 36.0 °F 29.6 °F 32.0 °F 86% 29.94 in 10.0 mi NW 8.1 mph - N/A   Clear
8:52 AM 45.0 °F 40.6 °F 36.0 °F 71% 29.96 in 10.0 mi WNW 8.1 mph - N/A   Clear
10:52 AM 55.9 °F - 37.9 °F 51% 29.98 in 10.0 mi NW 4.6 mph - N/A   Clear
11:52 AM 59.0 °F - 37.0 °F 44% 29.96 in 10.0 mi WNW 5.8 mph - N/A   Clear
12:52 PM 61.0 °F - 36.0 °F 39% 29.94 in 10.0 mi Calm Calm - N/A   Clear
2:52 PM 64.0 °F - 30.9 °F 29% 29.91 in 10.0 mi Variable 4.6 mph - N/A   Clear
3:52 PM 60.1 °F - 33.1 °F 36% 29.92 in 9.0 mi SE 3.5 mph - N/A   Clear
4:52 PM 60.1 °F - 34.0 °F 38% 29.92 in 7.0 mi East 5.8 mph - N/A   Scattered Clouds
5:52 PM 52.0 °F - 33.1 °F 49% 29.92 in 3.0 mi ESE 5.8 mph - N/A   Haze
6:52 PM 46.0 °F 42.5 °F 32.0 °F 58% 29.93 in 10.0 mi East 6.9 mph - N/A   Clear
8:52 PM 39.9 °F 34.5 °F 30.9 °F 70% 29.94 in 8.0 mi ESE 8.1 mph - N/A   Clear
9:52 PM 43.0 °F 38.2 °F 33.1 °F 68% 29.94 in 10.0 mi East 8.1 mph - N/A   Clear
10:52 PM 43.0 °F 38.8 °F 32.0 °F 65% 29.95 in 8.0 mi East 6.9 mph - N/A   Clear
11:52 PM 45.0 °F 40.1 °F 34.0 °F 65% 29.95 in 10.0 mi East 9.2 mph - N/A   Clear